EW8320 Weather Reports


Display with metric or nautical units.
time (UTC)temp
F
wind
direction
speed
MPH
gust
MPH
rain 1hr
in
rain 24hr
in
rain mn
in
humidity
%
barometer
mb
20260905095805 39 225 0.0 0.0 0.00 0.00 0.00 88 1020.0
20260905094805 40 225 0.0 0.0 0.00 0.00 0.00 86 1020.3
20260905091904 37 261 3.0 4.0 0.00 0.00 0.00 86 1020.3
20260905090905 40 256 2.0 4.0 0.00 0.00 0.00 86 1020.3
20260905085907 41 271 3.0 4.0 0.00 0.00 0.00 86 1020.3
20260905083907 41 237 0.0 2.0 0.00 0.00 0.00 85 1020.2
20260905082003 43 254 1.0 4.0 0.00 0.00 0.00 83 1020.2
20260905081004 43 271 2.0 4.0 0.00 0.00 0.00 84 1020.1
20260905075104 41 274 3.0 6.0 0.00 0.00 0.00 84 1020.4
20260905074106 43 261 3.0 5.0 0.00 0.00 0.00 83 1020.2
20260905072203 44 271 2.0 5.0 0.00 0.00 0.00 83 1020.0
20260905071203 44 247 1.0 2.0 0.00 0.00 0.00 82 1020.2
20260905070206 44 264 1.0 3.0 0.00 0.00 0.00 81 1020.0
20260905065210 45 261 0.0 4.0 0.00 0.00 0.00 81 1020.0
20260905063310 45 257 1.0 4.0 0.00 0.00 0.00 83 1019.9
20260905062406 45 271 2.0 3.0 0.00 0.00 0.00 81 1019.6
20260905061407 46 267 2.0 4.0 0.00 0.00 0.00 82 1019.4
20260905055409 45 247 0.0 1.0 0.00 0.00 0.00 84 1018.9
20260905054407 45 267 2.0 4.0 0.00 0.00 0.00 83 1018.9
20260905053409 45 202 0.0 0.0 0.00 0.00 0.00 82 1018.8
20260905052408 45 250 0.0 1.0 0.00 0.01 0.00 82 1018.9
20260905051409 45 270 0.0 1.0 0.00 0.02 0.00 82 1018.9
20260905050408 45 225 0.0 0.0 0.00 0.04 0.00 81 1019.2
20260905045408 45 225 0.0 0.0 0.00 0.06 0.00 80 1019.2
20260905044407 45 225 0.0 0.0 0.00 0.08 0.00 81 1019.3
20260905043506 45 218 2.0 3.0 0.00 0.09 0.00 80 1019.4
20260905042509 45 204 2.0 3.0 0.00 0.10 0.00 79 1019.5
20260905041508 45 112 0.0 0.0 0.00 0.11 0.00 78 1019.4
20260905040523 45 112 0.0 0.0 0.00 0.12 0.00 77 1019.5
20260905035509 46 112 0.0 1.0 0.00 0.16 0.00 77 1019.4
20260905034606 46 130 0.0 0.0 0.00 0.19 0.00 73 1019.4
20260905032607 47 259 2.0 4.0 0.00 0.23 0.00 70 1019.4
20260905031706 46 265 2.0 4.0 0.00 0.26 0.00 73 1019.3
20260905030708 47 223 1.0 1.0 0.00 0.30 0.00 73 1019.3
20260905025709 48 183 1.0 3.0 0.00 0.32 0.00 70 1019.4
20260905024806 49 224 0.0 1.0 0.00 0.35 0.00 68 1019.3
20260905023807 49 225 0.0 2.0 0.00 0.36 0.00 68 1019.2
20260905022808 49 180 0.0 0.0 0.00 0.38 0.00 70 1019.2
20260905021807 50 180 0.0 0.0 0.00 0.40 0.00 66 1019.2
20260905020806 51 202 0.0 1.0 0.00 0.41 0.00 64 1019.2
20260905015808 52 202 0.0 0.0 0.00 0.43 0.00 58 1019.0
20260905014809 53 315 0.0 0.0 0.00 0.45 0.00 54 1018.9
20260905013810 54 67 0.0 0.0 0.00 0.47 0.00 50 1018.8
20260905012809 55 337 0.0 0.0 0.00 0.49 0.00 48 1018.8
20260905011807 55 328 0.0 2.0 0.00 0.52 0.00 49 1018.7
20260905005808 56 225 0.0 1.0 0.00 0.56 0.00 49 1018.5
20260905004808 56 40 1.0 2.0 0.00 0.57 0.00 46 1018.5
20260905002822 58 344 2.0 3.0 0.00 0.60 0.00 42 1018.4
20260905000907 58 111 2.0 3.0 0.00 0.63 0.00 45 1018.3
20260904235907 59 82 1.0 3.0 0.00 0.65 0.00 43 1018.4
20260904234906 61 302 3.0 5.0 0.00 0.65 0.00 43 1018.4
20260904233909 60 77 6.0 8.0 0.00 0.66 0.00 45 1018.4
20260904233007 61 85 7.0 10.0 0.00 0.67 0.00 45 1018.4
20260904230007 59 115 4.0 5.0 0.00 0.67 0.00 50 1018.5
20260904225009 57 91 5.0 8.0 0.00 0.67 0.00 52 1018.5
20260904224007 57 85 5.0 7.0 0.00 0.67 0.00 51 1018.6
20260904223007 56 94 7.0 9.0 0.00 0.67 0.00 53 1018.6
20260904222006 56 82 4.0 7.0 0.00 0.67 0.00 55 1018.6
20260904221009 56 79 8.0 11.0 0.00 0.67 0.00 55 1018.6
20260904220007 56 91 5.0 7.0 0.00 0.67 0.00 55 1018.6
20260904215009 56 122 4.0 6.0 0.00 0.67 0.00 55 1018.6
20260904214908 56 109 5.0 8.0 0.00 0.67 0.00 56 1018.5
20260904214007 56 76 6.0 9.0 0.00 0.67 0.00 57 1018.5
20260904213008 56 86 5.0 9.0 0.00 0.67 0.00 54 1018.5
20260904212008 56 99 6.0 10.0 0.00 0.67 0.00 54 1018.3
20260904211908 56 105 6.0 9.0 0.00 0.67 0.00 53 1018.3
20260904210906 57 140 0.0 2.0 0.00 0.67 0.00 55 1018.3
20260904205908 58 98 7.0 11.0 0.00 0.67 0.00 54 1018.2
20260904204908 58 89 7.0 13.0 0.00 0.67 0.00 57 1018.3
20260904202206 57 86 7.0 10.0 0.00 0.67 0.00 61 1018.3
20260904201207 57 82 6.0 9.0 0.00 0.67 0.00 63 1018.3
20260904200223 56 73 3.0 6.0 0.00 0.67 0.00 65 1018.5
20260904195207 56 101 6.0 8.0 0.00 0.67 0.00 65 1018.5
20260904194207 55 80 7.0 12.0 0.00 0.67 0.00 67 1018.4
20260904193209 55 85 5.0 8.0 0.00 0.67 0.00 67 1018.7
20260904192208 55 84 1.0 3.0 0.00 0.67 0.00 66 1018.6
20260904191207 56 104 5.0 9.0 0.00 0.67 0.00 67 1018.7
20260904190307 56 59 3.0 6.0 0.00 0.67 0.00 66 1018.8
20260904185308 55 65 6.0 8.0 0.00 0.67 0.00 68 1018.8
20260904184309 55 109 8.0 11.0 0.00 0.67 0.00 69 1018.9
20260904183307 54 107 5.0 7.0 0.00 0.67 0.00 71 1018.9
20260904182309 54 86 6.0 10.0 0.00 0.67 0.00 71 1018.8
20260904175409 53 90 7.0 11.0 0.00 0.67 0.00 70 1018.9
20260904174407 53 99 7.0 10.0 0.00 0.67 0.00 68 1019.0
20260904173406 54 65 4.0 8.0 0.00 0.67 0.00 69 1019.0
20260904172409 52 265 1.0 2.0 0.00 0.67 0.00 71 1018.9
20260904171406 51 45 1.0 2.0 0.00 0.67 0.00 72 1018.9
20260904170409 51 250 0.0 1.0 0.00 0.67 0.00 76 1018.9
20260904165507 49 67 0.0 0.0 0.00 0.67 0.00 76 1018.8
20260904164606 49 343 0.0 1.0 0.00 0.67 0.00 78 1018.6
20260904162610 47 180 2.0 4.0 0.00 0.67 0.00 83 1018.8
20260904161607 47 203 2.0 3.0 0.00 0.67 0.00 88 1018.7
20260904160623 47 180 0.0 1.0 0.00 0.67 0.00 91 1018.7
20260904155624 47 202 0.0 0.0 0.00 0.67 0.00 91 1018.8
20260904154609 46 225 0.0 1.0 0.00 0.67 0.00 90 1018.8
20260904153608 44 157 0.0 1.0 0.00 0.67 0.00 92 1018.8
20260904151708 41 157 0.0 1.0 0.00 0.67 0.00 94 1018.6
20260904150806 40 180 0.0 1.0 0.00 0.67 0.00 94 1018.5
20260904145809 40 240 0.0 1.0 0.00 0.68 0.00 95 1018.3
20260904144907 39 135 0.0 0.0 0.00 0.68 0.00 94 1018.3
20260904143007 37 270 0.0 0.0 0.00 0.68 0.00 94 1017.9
20260904140008 35 270 0.0 0.0 0.00 0.68 0.00 95 1017.4
20260904135107 35 270 0.0 0.0 0.00 0.68 0.00 94 1017.2
20260904134107 35 270 0.0 0.0 0.00 0.68 0.00 95 1017.0
20260904133108 36 270 0.0 0.0 0.00 0.68 0.00 94 1016.9
20260904132108 36 180 0.0 0.0 0.00 0.68 0.00 94 1016.9
20260904131108 37 180 0.0 0.0 0.00 0.68 0.00 93 1016.7
20260904130110 37 180 0.0 0.0 0.00 0.68 0.00 94 1016.6
20260904125207 38 270 1.0 2.0 0.00 0.69 0.00 93 1016.7
20260904124208 38 45 0.0 0.0 0.00 0.69 0.00 94 1016.4
20260904122308 39 45 0.0 0.0 0.00 0.71 0.00 94 1016.4
20260904121308 39 45 0.0 0.0 0.00 0.72 0.00 93 1016.4
20260904120405 39 45 0.0 0.0 0.00 0.72 0.00 93 1016.3
20260904114508 40 45 2.0 3.0 0.00 0.74 0.00 92 1016.0
20260904113507 39 315 2.0 2.0 0.00 0.76 0.00 93 1015.7
20260904112507 39 67 0.0 1.0 0.00 0.78 0.00 92 1015.6
20260904110506 39 90 0.0 1.0 0.00 0.80 0.00 91 1015.9
20260904105508 39 360 0.0 1.0 0.00 0.82 0.00 91 1015.8
20260904104508 39 306 1.0 3.0 0.00 0.83 0.00 93 1015.6
20260904103507 39 268 1.0 2.0 0.00 0.83 0.00 93 1015.5
20260904102508 38 225 0.0 0.0 0.00 0.83 0.00 91 1015.4
20260904101508 37 291 0.0 0.0 0.00 0.83 0.00 93 1015.3
20260904100523 36 292 1.0 2.0 0.00 0.83 0.00 92 1015.4